Time,TemperatureF,DewpointF,PressureIn,WindDirection,WindDirectionDegrees,WindSpeedMPH,WindSpeedGustMPH,Humidity,HourlyPrecipIn,Conditions,Clouds,dailyrainin,SoftwareType,DateUTC
2017-03-23 00:01:00,67.4,62.1,30.10,SW,227,0.0,0.0,83,0.00,,,0.00,Wunderground v.1.15,2017-03-23 04:01:00,
2017-03-23 00:07:00,67.3,62.0,30.10,SW,227,0.0,0.0,83,0.00,,,0.00,Wunderground v.1.15,2017-03-23 04:07:00,
2017-03-23 00:12:00,67.2,62.2,30.10,SW,227,0.0,0.0,84,0.00,,,0.00,Wunderground v.1.15,2017-03-23 04:12:00,
2017-03-23 00:17:00,67.0,62.0,30.10,SW,227,0.0,0.0,84,0.00,,,0.00,Wunderground v.1.15,2017-03-23 04:17:00,
2017-03-23 00:23:00,66.9,62.2,30.10,SW,227,0.0,0.0,85,0.00,,,0.00,Wunderground v.1.15,2017-03-23 04:23:00,
2017-03-23 00:29:00,66.8,62.1,30.10,SW,227,0.0,0.0,85,0.00,,,0.00,Wunderground v.1.15,2017-03-23 04:29:00,
2017-03-23 00:35:00,66.6,62.3,30.10,SW,227,0.0,0.0,86,0.00,,,0.00,Wunderground v.1.15,2017-03-23 04:35:00,
2017-03-23 00:41:00,66.4,62.1,30.10,SW,227,0.0,0.0,86,0.00,,,0.00,Wunderground v.1.15,2017-03-23 04:41:00,
2017-03-23 00:46:00,66.2,62.2,30.10,SW,227,0.0,0.0,87,0.00,,,0.00,Wunderground v.1.15,2017-03-23 04:46:00,
2017-03-23 00:52:00,66.0,62.0,30.10,SW,227,0.0,0.0,87,0.00,,,0.00,Wunderground v.1.15,2017-03-23 04:52:00,
2017-03-23 00:59:00,65.6,61.6,30.10,SW,227,0.0,0.0,87,0.00,,,0.00,Wunderground v.1.15,2017-03-23 04:59:00,
2017-03-23 01:04:00,65.5,61.9,30.10,SW,227,0.0,0.0,88,0.00,,,0.00,Wunderground v.1.15,2017-03-23 05:04:00,
2017-03-23 01:10:00,65.7,62.0,30.11,SW,227,0.0,0.0,88,0.00,,,0.00,Wunderground v.1.15,2017-03-23 05:10:00,
2017-03-23 01:16:00,65.9,62.2,30.10,SW,227,0.0,0.0,88,0.00,,,0.00,Wunderground v.1.15,2017-03-23 05:16:00,
2017-03-23 01:21:00,65.8,62.1,30.11,SW,227,0.0,0.0,88,0.00,,,0.00,Wunderground v.1.15,2017-03-23 05:21:00,
2017-03-23 01:27:00,65.4,61.4,30.11,SW,227,0.0,0.0,87,0.00,,,0.00,Wunderground v.1.15,2017-03-23 05:27:00,
2017-03-23 01:32:00,65.2,61.6,30.11,SW,227,0.0,0.0,88,0.00,,,0.00,Wunderground v.1.15,2017-03-23 05:32:00,
2017-03-23 01:38:00,65.2,61.6,30.11,SW,227,0.0,0.0,88,0.00,,,0.00,Wunderground v.1.15,2017-03-23 05:38:00,
2017-03-23 01:44:00,65.3,62.0,30.11,SW,227,0.0,0.0,89,0.00,,,0.00,Wunderground v.1.15,2017-03-23 05:44:00,
2017-03-23 01:49:00,65.3,62.0,30.10,SW,227,0.0,0.0,89,0.00,,,0.00,Wunderground v.1.15,2017-03-23 05:49:00,
2017-03-23 01:55:00,65.2,61.6,30.10,SW,227,0.0,0.0,88,0.00,,,0.00,Wunderground v.1.15,2017-03-23 05:55:00,
2017-03-23 02:00:00,65.1,61.8,30.10,SW,227,0.0,0.0,89,0.00,,,0.00,Wunderground v.1.15,2017-03-23 06:00:00,
2017-03-23 02:07:00,65.1,61.8,30.10,SW,227,0.0,0.0,89,0.00,,,0.00,Wunderground v.1.15,2017-03-23 06:07:00,
2017-03-23 02:12:00,65.1,61.8,30.10,SW,227,0.0,0.0,89,0.00,,,0.00,Wunderground v.1.15,2017-03-23 06:12:00,
2017-03-23 02:18:00,65.1,61.8,30.10,SW,227,0.0,0.0,89,0.00,,,0.00,Wunderground v.1.15,2017-03-23 06:18:00,
2017-03-23 02:24:00,64.9,61.6,30.09,SW,227,0.0,0.0,89,0.00,,,0.00,Wunderground v.1.15,2017-03-23 06:24:00,
2017-03-23 02:30:00,64.7,61.4,30.09,SW,227,0.0,0.0,89,0.00,,,0.00,Wunderground v.1.15,2017-03-23 06:30:00,
2017-03-23 02:35:00,64.8,61.5,30.09,SW,227,0.0,0.0,89,0.00,,,0.00,Wunderground v.1.15,2017-03-23 06:35:00,
2017-03-23 02:41:00,64.7,61.4,30.09,SW,227,0.0,0.0,89,0.00,,,0.00,Wunderground v.1.15,2017-03-23 06:41:00,
2017-03-23 02:47:00,64.6,61.3,30.09,SW,227,0.0,0.0,89,0.00,,,0.00,Wunderground v.1.15,2017-03-23 06:47:00,
2017-03-23 02:52:00,64.4,61.1,30.09,SW,227,0.0,0.0,89,0.00,,,0.00,Wunderground v.1.15,2017-03-23 06:52:00,
2017-03-23 02:58:00,64.3,61.3,30.09,SW,227,0.0,0.0,90,0.00,,,0.00,Wunderground v.1.15,2017-03-23 06:58:00,
2017-03-23 03:04:00,64.2,61.2,30.09,SW,227,0.0,0.0,90,0.00,,,0.00,Wunderground v.1.15,2017-03-23 07:04:00,
2017-03-23 03:09:00,64.3,61.3,30.09,SW,227,0.0,0.0,90,0.00,,,0.00,Wunderground v.1.15,2017-03-23 07:09:00,
2017-03-23 03:15:00,64.3,61.3,30.09,SW,227,0.0,0.0,90,0.00,,,0.00,Wunderground v.1.15,2017-03-23 07:15:00,
2017-03-23 03:20:00,64.3,61.3,30.09,South,186,0.0,0.0,90,0.00,,,0.00,Wunderground v.1.15,2017-03-23 07:20:00,
2017-03-23 03:25:00,64.4,61.4,30.08,South,186,0.0,0.0,90,0.00,,,0.00,Wunderground v.1.15,2017-03-23 07:25:00,
2017-03-23 03:31:00,64.4,61.4,30.08,South,186,0.0,0.0,90,0.00,,,0.00,Wunderground v.1.15,2017-03-23 07:31:00,
2017-03-23 03:36:00,64.1,61.1,30.08,South,187,0.0,0.0,90,0.00,,,0.00,Wunderground v.1.15,2017-03-23 07:36:00,
2017-03-23 03:42:00,64.1,61.1,30.08,South,187,0.0,0.0,90,0.00,,,0.00,Wunderground v.1.15,2017-03-23 07:42:00,
2017-03-23 03:48:00,64.0,61.0,30.08,South,187,0.0,0.0,90,0.00,,,0.00,Wunderground v.1.15,2017-03-23 07:48:00,
2017-03-23 03:54:00,63.8,60.8,30.08,South,187,0.0,0.0,90,0.00,,,0.00,Wunderground v.1.15,2017-03-23 07:54:00,
2017-03-23 03:59:00,63.6,60.6,30.08,South,187,0.0,0.0,90,0.00,,,0.00,Wunderground v.1.15,2017-03-23 07:59:00,
2017-03-23 04:05:00,63.6,60.6,30.08,South,187,0.0,0.0,90,0.00,,,0.00,Wunderground v.1.15,2017-03-23 08:05:00,
2017-03-23 04:11:00,63.6,60.6,30.08,South,187,0.0,0.0,90,0.00,,,0.00,Wunderground v.1.15,2017-03-23 08:11:00,
2017-03-23 04:16:00,63.7,60.7,30.08,South,187,0.0,0.0,90,0.00,,,0.00,Wunderground v.1.15,2017-03-23 08:16:00,
2017-03-23 04:21:00,63.8,60.8,30.08,South,187,0.0,0.0,90,0.00,,,0.00,Wunderground v.1.15,2017-03-23 08:21:00,
2017-03-23 04:27:00,63.9,60.9,30.08,South,187,0.0,0.0,90,0.00,,,0.00,Wunderground v.1.15,2017-03-23 08:27:00,
2017-03-23 04:34:00,63.9,60.9,30.08,South,188,0.0,0.0,90,0.00,,,0.00,Wunderground v.1.15,2017-03-23 08:34:00,
2017-03-23 04:39:00,63.8,60.8,30.08,South,187,0.0,0.0,90,0.00,,,0.00,Wunderground v.1.15,2017-03-23 08:39:00,
2017-03-23 04:45:00,63.8,61.1,30.08,South,186,0.0,0.0,91,0.00,,,0.00,Wunderground v.1.15,2017-03-23 08:45:00,
2017-03-23 04:50:00,63.7,60.7,30.08,SSW,192,0.0,0.0,90,0.00,,,0.00,Wunderground v.1.15,2017-03-23 08:50:00,
2017-03-23 04:56:00,63.2,60.2,30.08,SSW,192,0.0,0.0,90,0.00,,,0.00,Wunderground v.1.15,2017-03-23 08:56:00,
2017-03-23 05:01:00,63.2,60.2,30.08,SSW,192,0.0,0.0,90,0.00,,,0.00,Wunderground v.1.15,2017-03-23 09:01:00,
2017-03-23 05:06:00,-999.9,-99.9,30.08,North,32767,-999.9,0.0,255,-99.99,,,0.00,Wunderground v.1.15,2017-03-23 09:06:00,
2017-03-23 05:12:00,-999.9,-99.9,30.08,North,32767,-999.9,0.0,255,-99.99,,,0.00,Wunderground v.1.15,2017-03-23 09:12:00,
2017-03-23 05:17:00,-999.9,-99.9,30.08,North,32767,-999.9,0.0,255,-99.99,,,0.00,Wunderground v.1.15,2017-03-23 09:17:00,
2017-03-23 05:23:00,-999.9,-99.9,30.08,North,32767,-999.9,0.0,255,-99.99,,,0.00,Wunderground v.1.15,2017-03-23 09:23:00,
2017-03-23 05:29:00,-999.9,-99.9,30.08,North,32767,-999.9,0.0,255,-99.99,,,0.00,Wunderground v.1.15,2017-03-23 09:29:00,
2017-03-23 05:34:00,-999.9,-99.9,30.08,North,32767,-999.9,0.0,255,-99.99,,,0.00,Wunderground v.1.15,2017-03-23 09:34:00,
2017-03-23 05:40:00,-999.9,-99.9,30.09,North,32767,-999.9,0.0,255,-99.99,,,0.00,Wunderground v.1.15,2017-03-23 09:40:00,
2017-03-23 05:46:00,-999.9,-99.9,30.09,North,32767,-999.9,0.0,255,-99.99,,,0.00,Wunderground v.1.15,2017-03-23 09:46:00,
2017-03-23 05:51:00,-999.9,-99.9,30.09,North,32767,-999.9,0.0,255,-99.99,,,0.00,Wunderground v.1.15,2017-03-23 09:51:00,
2017-03-23 05:56:00,-999.9,-99.9,30.09,North,32767,-999.9,0.0,255,-99.99,,,0.00,Wunderground v.1.15,2017-03-23 09:56:00,
2017-03-23 06:00:00,-999.9,-99.9,30.09,North,32767,-999.9,0.0,255,-99.99,,,0.00,Wunderground v.1.15,2017-03-23 10:00:00,
2017-03-23 06:06:00,-999.9,-99.9,30.09,North,32767,-999.9,0.0,255,-99.99,,,0.00,Wunderground v.1.15,2017-03-23 10:06:00,
2017-03-23 06:11:00,-999.9,-99.9,30.09,North,32767,-999.9,0.0,255,-99.99,,,0.00,Wunderground v.1.15,2017-03-23 10:11:00,
2017-03-23 06:16:00,-999.9,-99.9,30.09,North,32767,-999.9,0.0,255,-99.99,,,0.00,Wunderground v.1.15,2017-03-23 10:16:00,
2017-03-23 06:22:00,-999.9,-99.9,30.09,North,32767,-999.9,0.0,255,-99.99,,,0.00,Wunderground v.1.15,2017-03-23 10:22:00,
2017-03-23 06:28:00,-999.9,-99.9,30.09,North,32767,-999.9,0.0,255,-99.99,,,0.00,Wunderground v.1.15,2017-03-23 10:28:00,
2017-03-23 06:34:00,-999.9,-99.9,30.09,North,32767,-999.9,0.0,255,-99.99,,,0.00,Wunderground v.1.15,2017-03-23 10:34:00,
2017-03-23 06:39:00,-999.9,-99.9,30.09,North,32767,-999.9,0.0,255,-99.99,,,0.00,Wunderground v.1.15,2017-03-23 10:39:00,
2017-03-23 06:45:00,-999.9,-99.9,30.09,North,32767,-999.9,0.0,255,-99.99,,,0.00,Wunderground v.1.15,2017-03-23 10:45:00,
2017-03-23 06:51:00,-999.9,-99.9,30.10,North,32767,-999.9,0.0,255,-99.99,,,0.00,Wunderground v.1.15,2017-03-23 10:51:00,
2017-03-23 06:56:00,-999.9,-99.9,30.10,North,32767,-999.9,0.0,255,-99.99,,,0.00,Wunderground v.1.15,2017-03-23 10:56:00,
2017-03-23 07:02:00,-999.9,-99.9,30.10,North,32767,-999.9,0.0,255,-99.99,,,0.00,Wunderground v.1.15,2017-03-23 11:02:00,
2017-03-23 07:08:00,-999.9,-99.9,30.10,North,32767,-999.9,0.0,255,-99.99,,,0.00,Wunderground v.1.15,2017-03-23 11:08:00,
2017-03-23 07:14:00,-999.9,-99.9,30.10,North,32767,-999.9,0.0,255,-99.99,,,0.00,Wunderground v.1.15,2017-03-23 11:14:00,
2017-03-23 07:19:00,-999.9,-99.9,30.11,North,32767,-999.9,0.0,255,-99.99,,,0.00,Wunderground v.1.15,2017-03-23 11:19:00,
2017-03-23 07:24:00,-999.9,-99.9,30.11,North,32767,-999.9,0.0,255,-99.99,,,0.00,Wunderground v.1.15,2017-03-23 11:24:00,
2017-03-23 07:30:00,-999.9,-99.9,30.11,North,32767,-999.9,0.0,255,-99.99,,,0.00,Wunderground v.1.15,2017-03-23 11:30:00,
2017-03-23 07:36:00,-999.9,-99.9,30.12,North,32767,-999.9,0.0,255,-99.99,,,0.00,Wunderground v.1.15,2017-03-23 11:36:00,
2017-03-23 07:42:00,-999.9,-99.9,30.12,North,32767,-999.9,0.0,255,-99.99,,,0.00,Wunderground v.1.15,2017-03-23 11:42:00,
2017-03-23 07:47:00,-999.9,-99.9,30.12,North,32767,-999.9,0.0,255,-99.99,,,0.00,Wunderground v.1.15,2017-03-23 11:47:00,
2017-03-23 07:53:00,-999.9,-99.9,30.12,North,32767,-999.9,0.0,255,-99.99,,,0.00,Wunderground v.1.15,2017-03-23 11:53:00,
2017-03-23 07:59:00,63.9,61.2,30.12,NW,307,0.0,0.0,91,0.00,,,0.00,Wunderground v.1.15,2017-03-23 11:59:00,
2017-03-23 08:04:00,64.1,61.4,30.12,NW,307,0.0,0.0,91,0.00,,,0.00,Wunderground v.1.15,2017-03-23 12:04:00,
2017-03-23 08:09:00,64.3,61.6,30.13,NW,314,0.0,0.0,91,0.00,,,0.00,Wunderground v.1.15,2017-03-23 12:09:00,
2017-03-23 08:15:00,64.6,61.9,30.13,WNW,303,0.0,0.0,91,0.00,,,0.00,Wunderground v.1.15,2017-03-23 12:15:00,
2017-03-23 08:20:00,64.8,62.1,30.13,NW,305,0.0,0.0,91,0.00,,,0.00,Wunderground v.1.15,2017-03-23 12:20:00,
2017-03-23 08:25:00,65.0,62.3,30.13,NW,304,0.0,0.0,91,0.00,,,0.00,Wunderground v.1.15,2017-03-23 12:25:00,
2017-03-23 08:31:00,65.4,62.7,30.13,WNW,287,0.0,0.0,91,0.00,,,0.00,Wunderground v.1.15,2017-03-23 12:31:00,
2017-03-23 08:36:00,65.6,62.6,30.13,NW,306,0.0,1.0,90,0.00,,,0.00,Wunderground v.1.15,2017-03-23 12:36:00,
2017-03-23 08:42:00,66.0,63.0,30.13,NW,309,0.0,0.0,90,0.00,,,0.00,Wunderground v.1.15,2017-03-23 12:42:00,
2017-03-23 08:47:00,66.5,63.5,30.14,WNW,303,0.0,0.0,90,0.00,,,0.00,Wunderground v.1.15,2017-03-23 12:47:00,
2017-03-23 08:52:00,67.4,64.4,30.13,WNW,303,0.0,0.0,90,0.00,,,0.00,Wunderground v.1.15,2017-03-23 12:52:00,
2017-03-23 08:58:00,67.9,64.5,30.13,NW,304,0.0,0.0,89,0.00,,,0.00,Wunderground v.1.15,2017-03-23 12:58:00,
2017-03-23 09:03:00,68.6,64.9,30.13,WNW,289,0.0,1.0,88,0.00,,,0.00,Wunderground v.1.15,2017-03-23 13:03:00,
2017-03-23 09:09:00,70.0,66.0,30.13,WNW,290,0.0,1.0,87,0.00,,,0.00,Wunderground v.1.15,2017-03-23 13:09:00,
2017-03-23 09:14:00,71.2,66.1,30.13,SE,130,0.0,0.0,84,0.00,,,0.00,Wunderground v.1.15,2017-03-23 13:14:00,
2017-03-23 09:20:00,72.0,65.8,30.13,East,95,0.0,0.0,81,0.00,,,0.00,Wunderground v.1.15,2017-03-23 13:20:00,
2017-03-23 09:25:00,72.4,65.5,30.14,ENE,71,0.0,1.0,79,0.00,,,0.00,Wunderground v.1.15,2017-03-23 13:25:00,